Weather History for Metropolis, IL

Change the Weather History Date:

Monday, February 20, 2012

  Actual Average (KPAH) Record (KPAH)
Temperature  
Mean Temperature 37 °F 41 °F  
Max Temperature 52 °F 51 °F 74 °F (1986)
Min Temperature 22 °F 31 °F 10 °F (1978)
Degree Days  
Heating Degree Days 28 24  
Month to date heating degree days 539  
Since 1 July heating degree days 3112  
Cooling Degree Days 0 0  
Month to date cooling degree days 0  
Year to date cooling degree days 0  
Moisture  
Dew Point 24 °F    
Average Humidity 64    
Maximum Humidity 96    
Minimum Humidity 29    
Precipitation  
Precipitation 0.00 in 0.14 in 2.75 in (1951)
Month to date precipitation 2.80  
Year to date precipitation 6.48  
Snow  
Snow 0.00 in 0.10 in 1.00 in (1963)
Month to date snowfall 2.5  
Since 1 July snowfall 7.8  
Snow Depth -    
Sea Level Pressure  
Sea Level Pressure 30.19 in    
Wind  
Wind Speed 2 mph (ESE)    
Max Wind Speed 12 mph    
Max Gust Speed -    
Visibility 10 miles    
Events      
T = Trace of Precipitation, MM = Missing Value Source: NWS Daily Summary

Daily Weather History Graph

Daily Weather History Graph

Search for Another Location

Airport:

Trip Planner

Search our weather history database for the weather conditions in past years. The results will help you decide how hot, cold, wet, or windy it might be!

Date:

Astronomy

Feb. 20, 2012 Rise Set
Actual Time 6:38 AM CST 5:39 PM CST
Civil Twilight 6:12 AM CST 6:06 PM CST
Nautical Twilight 5:41 AM CST 6:36 PM CST
Astronomical Twilight 5:11 AM CST 7:06 PM CST
Moon 5:34 AM CST (2/20) 4:44 PM CST (2/20)
Length of Visible Light 11h 54m
Length of Day
11h 01m
Waning Crescent, 1% of the Moon is Illuminated
Feb 20
Waning Crescent
Feb 21
New
Feb 29
First Quarter
Mar 8
Full
Mar 14
Last Quarter

Hourly Weather History & Observations

Time (CST) Temp. Windchill Dew Point Humidity Pressure Visibility Wind Dir Wind Speed Gust Speed Precip Events Conditions
12:15 AM 28.8 °F - 23.7 °F 81% 30.15 in 10.0 mi Calm Calm - N/A   Clear
12:35 AM 28.0 °F - 23.5 °F 83% 30.15 in 10.0 mi Calm Calm - N/A   Clear
12:55 AM 27.7 °F - 24.1 °F 86% 30.16 in 10.0 mi Calm Calm - N/A   Clear
1:15 AM 27.3 °F - 23.7 °F 86% 30.18 in 10.0 mi Calm Calm - N/A   Clear
1:35 AM 26.4 °F - 22.8 °F 86% 30.19 in 10.0 mi Calm Calm - N/A   Clear
1:55 AM 26.4 °F - 23.0 °F 87% 30.20 in 10.0 mi Calm Calm - N/A   Clear
2:15 AM 25.7 °F - 21.9 °F 86% 30.21 in 10.0 mi Calm Calm - N/A   Clear
2:35 AM 26.8 °F - 23.2 °F 86% 30.21 in 10.0 mi Calm Calm - N/A   Clear
2:55 AM 26.1 °F - 23.2 °F 89% 30.21 in 10.0 mi Calm Calm - N/A   Clear
3:15 AM 26.2 °F 22.1 °F 23.0 °F 88% 30.22 in 10.0 mi North 3.5 mph - N/A   Clear
3:35 AM 25.9 °F - 22.6 °F 88% 30.24 in 10.0 mi Calm Calm - N/A   Clear
3:55 AM 25.0 °F - 22.8 °F 91% 30.24 in 10.0 mi Calm Calm - N/A   Clear
4:15 AM 24.3 °F 19.9 °F 21.9 °F 91% 30.25 in 10.0 mi North 3.5 mph - N/A   Clear
4:35 AM 25.9 °F - 22.8 °F 88% 30.25 in 10.0 mi Calm Calm - N/A   Clear
4:55 AM 23.5 °F - 21.4 °F 91% 30.25 in 10.0 mi Calm Calm - N/A   Clear
5:15 AM 23.9 °F - 22.6 °F 95% 30.25 in 10.0 mi Calm Calm - N/A   Clear
5:35 AM 22.8 °F 18.2 °F 21.2 °F 93% 30.25 in 10.0 mi NE 3.5 mph - N/A   Clear
5:55 AM 22.3 °F 17.6 °F 21.4 °F 96% 30.25 in 10.0 mi ENE 3.5 mph - N/A   Clear
6:15 AM 22.8 °F - 21.7 °F 96% 30.24 in 10.0 mi Calm Calm - N/A   Clear
6:35 AM 23.4 °F 18.9 °F 22.3 °F 96% 30.24 in 10.0 mi ENE 3.5 mph - N/A   Clear
6:55 AM 24.6 °F 20.3 °F 23.0 °F 94% 30.22 in 10.0 mi ENE 3.5 mph - N/A   Clear
7:15 AM 25.3 °F 21.1 °F 23.2 °F 91% 30.21 in 10.0 mi East 3.5 mph - N/A   Clear
7:35 AM 29.8 °F 24.9 °F 25.7 °F 85% 30.22 in 10.0 mi East 4.6 mph - N/A   Clear
7:55 AM 32.0 °F 26.4 °F 26.4 °F 80% 30.23 in 10.0 mi East 5.8 mph - N/A   Clear
8:15 AM 33.1 °F 30.0 °F 26.8 °F 78% 30.24 in 10.0 mi East 3.5 mph - N/A   Clear
8:35 AM 34.7 °F 31.8 °F 26.8 °F 73% 30.26 in 10.0 mi ESE 3.5 mph - N/A   Clear
8:55 AM 36.0 °F 32.1 °F 26.6 °F 69% 30.27 in 10.0 mi ESE 4.6 mph - N/A   Clear
9:15 AM 37.2 °F - 27.3 °F 67% 30.27 in 10.0 mi Calm Calm - N/A   Clear
9:35 AM 38.1 °F - 27.7 °F 66% 30.27 in 10.0 mi Calm Calm - N/A   Clear
9:55 AM 39.6 °F 37.4 °F 27.1 °F 61% 30.27 in 10.0 mi SE 3.5 mph - N/A   Clear
10:15 AM 40.8 °F 37.8 °F 27.3 °F 59% 30.27 in 10.0 mi ESE 4.6 mph - N/A   Clear
10:35 AM 42.4 °F 38.8 °F 27.1 °F 55% 30.26 in 10.0 mi SE 5.8 mph - N/A   Clear
10:55 AM 43.5 °F 40.1 °F 27.0 °F 52% 30.26 in 10.0 mi SE 5.8 mph - N/A   Clear
11:15 AM 43.5 °F 38.9 °F 26.8 °F 52% 30.26 in 10.0 mi SE 8.1 mph - N/A   Clear
11:35 AM 44.8 °F 41.0 °F 25.9 °F 48% 30.26 in 10.0 mi SE 6.9 mph - N/A   Clear
11:55 AM 45.7 °F 42.0 °F 23.7 °F 42% 30.25 in 10.0 mi East 6.9 mph - N/A   Clear
12:15 PM 45.9 °F - 25.2 °F 44% 30.24 in 10.0 mi Calm Calm - N/A   Clear
12:35 PM 47.8 °F - 25.5 °F 42% 30.22 in 10.0 mi SE 4.6 mph - N/A   Clear
12:55 PM 48.6 °F - 25.2 °F 40% 30.19 in 10.0 mi South 3.5 mph - N/A   Clear
1:15 PM 49.8 °F - 23.9 °F 36% 30.19 in 10.0 mi ESE 4.6 mph - N/A   Clear
1:35 PM 49.8 °F - 22.1 °F 34% 30.17 in 10.0 mi SE 8.1 mph - N/A   Clear
2:15 PM 51.4 °F - 22.5 °F 32% 30.14 in 10.0 mi ESE 6.9 mph - N/A   Clear
2:35 PM 51.4 °F - 22.5 °F 32% 30.13 in 10.0 mi ESE 6.9 mph - N/A   Clear
2:55 PM 52.0 °F - 23.4 °F 33% 30.12 in 10.0 mi ESE 6.9 mph - N/A   Clear
3:15 PM 52.3 °F - 24.1 °F 33% 30.11 in 10.0 mi East 11.5 mph - N/A   Clear
3:35 PM 52.7 °F - 23.7 °F 32% 30.09 in 10.0 mi SE 6.9 mph - N/A   Clear
3:55 PM 52.3 °F - 23.0 °F 32% 30.09 in 10.0 mi ESE 8.1 mph - N/A   Clear
4:15 PM 52.9 °F - 22.5 °F 31% 30.09 in 10.0 mi SE 5.8 mph - N/A   Clear
4:35 PM 52.9 °F - 21.0 °F 29% 30.07 in 10.0 mi SE 8.1 mph - N/A   Clear
4:55 PM 52.3 °F - 21.4 °F 30% 30.06 in 10.0 mi SE 9.2 mph - N/A   Clear
5:15 PM 51.6 °F - 22.1 °F 32% 30.05 in 10.0 mi SE 8.1 mph - N/A   Clear
5:35 PM 50.4 °F - 21.9 °F 33% 30.04 in 10.0 mi SE 3.5 mph - N/A   Clear
5:55 PM 48.2 °F - 22.3 °F 36% 30.04 in 10.0 mi Calm Calm - N/A   Clear
6:15 PM 46.6 °F - 23.2 °F 40% 30.03 in 10.0 mi ESE 3.5 mph - N/A   Clear
6:35 PM 45.3 °F - 24.6 °F 44% 30.04 in 10.0 mi Calm Calm - N/A   Clear
6:55 PM 43.9 °F - 24.8 °F 47% 30.04 in 10.0 mi Calm Calm - N/A   Clear
7:15 PM 42.8 °F - 25.3 °F 50% 30.04 in 10.0 mi Calm Calm - N/A   Clear
7:35 PM 39.7 °F - 26.4 °F 59% 30.03 in 10.0 mi Calm Calm - N/A   Clear
7:55 PM 38.3 °F 35.9 °F 25.3 °F 60% 30.01 in 10.0 mi East 3.5 mph - N/A   Clear
8:15 PM 40.8 °F 37.8 °F 25.7 °F 55% 29.99 in 10.0 mi ESE 4.6 mph - N/A   Clear
8:35 PM 43.2 °F 39.7 °F 25.7 °F 50% 29.96 in 10.0 mi ESE 5.8 mph - N/A   Clear
8:55 PM 43.7 °F 42.1 °F 27.0 °F 52% 29.96 in 10.0 mi SE 3.5 mph - N/A   Clear
9:15 PM 44.1 °F 41.5 °F 27.5 °F 52% 29.97 in 10.0 mi SE 4.6 mph - N/A   Clear
9:35 PM 43.5 °F 40.9 °F 26.1 °F 50% 29.98 in 10.0 mi SE 4.6 mph - N/A   Clear
9:55 PM 42.6 °F 39.9 °F 25.0 °F 50% 29.98 in 10.0 mi SE 4.6 mph - N/A   Clear
10:15 PM 43.0 °F 39.5 °F 25.7 °F 51% 29.97 in 10.0 mi SE 5.8 mph - N/A   Scattered Clouds
10:35 PM 45.5 °F 41.3 °F 25.5 °F 46% 29.95 in 10.0 mi SSE 8.1 mph - N/A   Overcast
10:55 PM 47.3 °F - 25.9 °F 43% 29.94 in 10.0 mi SSE 10.4 mph 16.1 mph N/A   Overcast
11:15 PM 47.7 °F - 26.8 °F 44% 29.93 in 10.0 mi SSE 8.1 mph 16.1 mph N/A   Overcast
11:35 PM 48.2 °F - 27.1 °F 44% 29.93 in 10.0 mi South 11.5 mph 17.3 mph N/A   Overcast
11:55 PM 48.9 °F - 27.5 °F 43% 29.92 in 10.0 mi South 10.4 mph 19.6 mph N/A   Overcast